Regional Weather Roundup
Issued by NWS

Home | Current Version | Previous Version | Text Only | Print | Product List | Glossary Off
Versions: 1 2 3 4 5 6 7 8 9 10 11 12 13 14 15 16 17 18 19 20 21 22 23 24 25 26 27 28 29 30 31 32 33 34 35 36 37 38 39 40 41 42 43 44 45 46 47 48 49 50

000
ASUS45 KBOU 271907
RWRCO

WEATHER ROUNDUP FOR COLORADO
NATIONAL WEATHER SERVICE DENVER/BOULDER CO
1200 PM MST TUE JAN 27 2015

NOTE: "FAIR" INDICATES FEW OR NO CLOUDS BELOW 12000 FEET WITH NO
SIGNIFICANT WEATHER AND/OR OBSTRUCTIONS TO VISIBILITY.

COZ001>005-013-030-031-272000-
...NORTHWEST COLORADO...

CITY           SKY/WX    TMP DP  RH WIND       PRES   REMARKS
CRAIG          MOSUNNY   34  24  67 SW5       30.28F WCI  30
HAYDEN         MOSUNNY   37  25  60 SE9       30.28F
MEEKER         MOSUNNY   33  22  63 CALM      30.29F
MOUNT WERNER   NOT AVBL
STEAMBOAT SPGS MOSUNNY   35  21  56 CALM      30.29F
WALDEN         SUNNY     36  23  60 CALM      30.31F
$$

COZ006>008-011-272000-
...WEST CENTRAL VALLEYS...

CITY           SKY/WX    TMP DP  RH WIND       PRES   REMARKS
GRAND JUNCTION CLOUDY    44  27  51 NE8       30.29F
MONTROSE       SUNNY     54  24  31 N5        30.30F
EAGLE          MOSUNNY   34  25  69 CALM      30.37F
RIFLE          MOSUNNY   45  25  45 CALM      30.29F
DELTA          NOT AVBL
NUCLA          MOSUNNY   54  27  35 NW8       30.35F
$$

COZ017>023-064>068-272000-
...SOUTHWEST COLORADO...

CITY           SKY/WX    TMP DP  RH WIND       PRES   REMARKS
DURANGO        CLOUDY    48  28  46 N5        30.36F
CORTEZ         CLOUDY    47  29  49 CALM      30.35F
PAGOSA SPRINGS MOSUNNY   51  20  28 S6        30.38F
TELLURIDE      SUNNY     50  14  24 E9G16     30.39F
WOLF CREEK PAS NOT AVBL
$$

COZ009-010-012-014-032>034-037-058>063-272000-
...CENTRAL COLORADO...

CITY           SKY/WX    TMP DP  RH WIND       PRES   REMARKS
ASPEN          SUNNY     43  20  39 CALM      30.31F
BUENA VISTA    SUNNY     49  17  28 CALM      30.31F
COPPER MTN     MOSUNNY   41   3  20 W9        30.47F
BERTHOUD PASS  FAIR      32  28  86 NW13      30.49F WCI  22
COTTONWOOD PAS SUNNY     52  10  19 SE3       30.37F
GUNNISON       MOSUNNY   12  10  92 CALM      30.45F
KREMMLING      PTSUNNY  N/A N/A N/A CALM      30.41F HAZE
LEADVILLE      SUNNY     47  12  24 CALM      30.35F
SALIDA         SUNNY     54  18  24 N6        30.36F
SUNLIGHT       MOSUNNY   45  19  36 CALM      30.44F
WILKERSON PASS SUNNY     43  10  26 SW6       30.45F
$$

COZ069>075-272000-
...SAN LUIS VALLEY/SANGRE DE CRISTO MOUNTAINS...

CITY           SKY/WX    TMP DP  RH WIND       PRES   REMARKS
ALAMOSA        MOSUNNY   44  20  38 VRB3      30.36F
LA VETA PASS   NOT AVBL
SAGUACHE       MOSUNNY   36  21  55 CALM      30.38F
$$

COZ035-036-038>040-272000-
...NORTHERN COLORADO FRONT RANGE...

CITY           SKY/WX    TMP DP  RH WIND       PRES   REMARKS
DENVER INTL AP PTSUNNY   71  20  14 SW9       30.11F
DMNS CITY PARK   N/A     70  16  12 S6        30.10F
AURORA         PTSUNNY   69  18  14 SW10      30.12F
FRONT RANGE AP PTSUNNY   72  21  15 SW9       30.12
ERIE MUNI ARPT MOSUNNY   65  20  18 N3        30.10F
BOULDER MUN AP MOSUNNY   66  23  19 E3        30.10F
CENTENNIAL     PTSUNNY   68  18  14 S9        30.13F
BROOMFIELD     NOT AVBL
FORT COLLINS   SUNNY     61  28  29 CALM      30.11F
LONGMONT       SUNNY     67  24  19 E5        30.11F
$$

COZ041-046-047-076>085-087-088-272000-
...PIKES PEAK/PALMER DIVIDE AND SOUTHERN FOOTHILLS...

CITY           SKY/WX    TMP DP  RH WIND       PRES   REMARKS
COLO. SPRINGS  PTSUNNY   65  20  17 SE5       30.19F
A. F. ACADEMY  MOSUNNY   66  12  12 SE6       30.18F
ELLICOTT       MOSUNNY    1  32 100 SW9       30.18F WCI -14
FALCON         MOSUNNY   65  14  14 S5        30.22F
FORT CARSON    SUNNY     65  25  22 VRB3      30.16F
LIMON          SUNNY     70  16  12 SW14G25   30.13F
MONUMENT HILL  MOSUNNY   61  19  20 SW9       30.21F
TRINIDAD       SUNNY     64  23  21 CALM      30.19F
$$

COZ042>045-048>051-090-091-272000-
...NORTHEAST COLORADO...

CITY           SKY/WX    TMP DP  RH WIND       PRES   REMARKS
GREELEY ARPT   SUNNY     57  30  35 CALM      30.09F
AKRON          SUNNY     67  28  23 W8        30.10F
BURLINGTON     SUNNY     72  28  19 SW15      30.10F
WRAY           SUNNY     75  25  15 W7        30.06F
STERLING       SUNNY     61  37  41 S6        30.07F
HOLYOKE        SUNNY     75  27  16 W10       30.05F
FORT MORGAN    SUNNY     60  27  28 S3        30.10F
$$

COZ086-089-092>099-272000-
...SOUTHEAST COLORADO...

CITY           SKY/WX    TMP DP  RH WIND       PRES   REMARKS
PUEBLO         SUNNY     64  25  22 SW6       30.13F
LA JUNTA       SUNNY     64  30  27 S6        30.12F
LAMAR          SUNNY     64  32  30 W8        30.10F
SPRINGFIELD      N/A     72  20  14 SW15G22   30.13F
$$



USA.gov is the U.S. government's official web portal to all federal, state and local government web resources and services.